Observations for Trim Market St
| Time | AQI | Temp °C | Hum % | Pres Pa | CO μg/m³ | H₂S μg/m³ | NO μg/m³ | NO₂ μg/m³ | O₃ μg/m³ | SO₂ μg/m³ | PM1 μg/m³ | PM2.5 μg/m³ | PM10 μg/m³ |
|---|---|---|---|---|---|---|---|---|---|---|---|---|---|
| Monday 17 August 2026 | |||||||||||||
| 14:42 | 2 | 25.5 | 52 | 57,155 | 0 | 0 | 1.61 | 16.45 | 67.21 | 0 | 0.71 | 2.35 | 2.41 |
| 14:41 | 2 | 25.5 | 52 | 57,240 | 0 | 0 | 1.57 | 12.81 | 53.13 | 0 | 0.71 | 3.37 | 3.87 |
| 14:40 | 2 | 25.5 | 53 | 57,174 | 0 | 0 | 1.46 | 12.37 | 66.29 | 0 | 0.71 | 3.36 | 3.88 |
| 14:39 | 2 | 25.4 | 52 | 57,059 | 0 | 0 | 1.46 | 13.1 | 57.33 | 0 | 0.71 | 2.35 | 2.41 |
| 14:38 | 2 | 25.4 | 52 | 56,963 | 0 | 0 | 1.29 | 13 | 58.88 | 0 | 0.71 | 2.35 | 2.41 |
| 14:37 | 2 | 25.4 | 52 | 56,990 | 0 | 0 | 1.38 | 14.34 | 53.6 | 0 | 0 | 1.84 | 2.41 |
| 14:36 | 2 | 25.4 | 52 | 57,145 | 0 | 0 | 1.29 | 12.03 | 64.06 | 0 | 0 | 2.86 | 3.14 |
| 14:35 | 2 | 25.4 | 52 | 57,266 | 0 | 0 | 1.31 | 11.62 | 62.27 | 0 | 1.43 | 3.37 | 3.87 |
| 14:34 | 2 | 25.4 | 52 | 57,173 | 0 | 0 | 1.41 | 12.77 | 80 | 0 | 0.71 | 2.86 | 3.14 |
| 14:33 | 2 | 25.4 | 52 | 57,324 | 0 | 0 | 1.38 | 13.06 | 62.03 | 0 | 0 | 2.36 | 2.4 |
| 14:32 | 2 | 25.4 | 52 | 57,626 | 0 | 0 | 1.24 | 11.9 | 59.6 | 0 | 1.43 | 3.38 | 3.86 |
| 14:31 | 2 | 25.4 | 52 | 57,762 | 0 | 0 | 1.36 | 11.88 | 78.37 | 0 | 0.71 | 2.87 | 3.86 |
| 14:29 | 2 | 25.4 | 52 | 57,827 | 0 | 0 | 1.24 | 11.96 | 62.64 | 0 | 0 | 2.36 | 2.4 |
| 14:28 | 2 | 25.4 | 52 | 58,120 | 0 | 0 | 1.16 | 11.81 | 68.96 | 0 | 0.71 | 2.87 | 4.6 |
| 14:27 | 2 | 25.5 | 52 | 58,159 | 0 | 0 | 1.06 | 11.05 | 52.67 | 0 | 1.43 | 4.4 | 5.33 |
| 14:24 | 2 | 25.5 | 52 | 58,191 | 0 | 0 | 0.95 | 11.44 | 64.69 | 0 | 0.71 | 2.87 | 3.13 |
| 14:23 | 2 | 25.5 | 52 | 58,148 | 0 | 0 | 0.97 | 9.62 | 56.35 | 0 | 0 | 2.35 | 2.41 |
| 14:22 | 2 | 25.5 | 52 | 57,790 | 0 | 0 | 1.01 | 11.42 | 61.16 | 0 | 0.71 | 2.86 | 3.14 |
| 14:21 | 2 | 25.5 | 52 | 57,583 | 0 | 0 | 1.03 | 11.3 | 63.09 | 0 | 0.71 | 2.86 | 3.14 |
| 14:20 | 2 | 25.5 | 52 | 57,449 | 0 | 0 | 1.06 | 11.58 | 73.67 | 0 | 0.71 | 3.37 | 3.87 |